Home > Weather > U.S.A. > St. George > Past weeks

Flag for U.S.A. Weather past 2 weeks in St. George, Utah, U.S.A.

36 °F


Feels Like: 31 °F
Forecast: 23 / 51 °F
Wind: 6 mph from East

Location: Saint George

Current Time: Dec 2, 2015 at 1:04:50 AM

Latest Report: Dec 2, 2015 at 12:35 AM

Visibility: 10 mi

Pressure: 30.31 "Hg (27.30 "Hg at 842m altitude)

Humidity: 35%

Dew point: 10 °F

Location of St. GeorgeLocation

Historic Weather in St. George — Graph


St. George temperature yesterday

Maximum temperature yesterday: 52 °F (at 2:35 PM)
Minimum temperature yesterday: 21 °F (at 7:35 AM)
Average temperature yesterday: 34 °F

Past Weeks' High & Low Weather Summary

High68 °F (Nov 24, 3:15 PM)80% (Nov 18, 7:55 AM)30.40 "Hg (Nov 18, 7:55 AM)
Low21 °F (Nov 30, 7:35 AM)20% (Nov 21, 4:35 PM)29.64 "Hg (Nov 25, 6:15 AM)
Average42 °F43%30.10 "Hg
* Reported Nov 16 11:35 PM — Dec 1 11:35 PM, St. George, Weather by CustomWeather, © 2015

Note: Actual official high and low records may vary slightly from our data, if they occured in-between our weather recording intervals... More about our weather records


St. George weather history for previous 24 hours

Time TempWeatherWind HumidityBarometerVisibility
11:35 PM
Tue, Dec 1
36 °FChilly.7 mph32%30.30 "Hg10 mi
11:15 PM34 °FChilly.6 mph38%30.30 "Hg10 mi
10:55 PM36 °FChilly.No wind35%30.30 "Hg10 mi
10:35 PM36 °FChilly.No wind35%30.30 "Hg10 mi
10:15 PM37 °FChilly.No wind35%30.30 "Hg10 mi
9:55 PM37 °FChilly.3 mph33%30.30 "Hg10 mi
8:35 PM39 °FChilly.No wind30%30.29 "Hg10 mi
7:35 PM37 °FChilly.6 mph33%30.27 "Hg10 mi
7:15 PM39 °FChilly.5 mph33%30.27 "Hg10 mi
6:55 PM39 °FChilly.5 mph30%30.25 "Hg10 mi
5:35 PM46 °FCool.3 mph25%30.21 "Hg10 mi
5:15 PM48 °FCool.3 mph23%30.21 "Hg10 mi
3:35 PM50 °FCool.3 mph24%30.20 "Hg10 mi
2:55 PM50 °FCool.No wind24%30.21 "Hg10 mi
2:35 PM52 °FCool.No wind24%30.22 "Hg10 mi
1:55 PM46 °FCool.No wind27%30.23 "Hg10 mi
1:35 PM45 °FQuite cool.No wind31%30.23 "Hg10 mi
1:15 PM45 °FQuite cool.No wind31%30.24 "Hg10 mi
12:55 PM43 °FQuite cool.No wind31%30.25 "Hg10 mi
12:35 PM43 °FQuite cool.3 mph31%30.26 "Hg10 mi
11:55 AM39 °FChilly.No wind36%30.27 "Hg10 mi
11:35 AM37 °FChilly.No wind35%30.28 "Hg10 mi
11:15 AM37 °FChilly.No wind35%30.30 "Hg10 mi
10:55 AM36 °FChilly.5 mph38%30.30 "Hg10 mi
10:35 AM36 °FChilly.No wind38%30.30 "Hg10 mi
10:15 AM34 °FChilly.No wind41%30.30 "Hg10 mi
9:55 AM34 °FChilly.5 mph41%30.30 "Hg10 mi
9:35 AM30 °FChilly.5 mph47%30.29 "Hg10 mi
9:15 AM28 °FChilly.No wind51%30.28 "Hg10 mi
8:55 AM27 °FChilly.No wind50%30.28 "Hg10 mi
8:35 AM27 °FChilly.3 mph50%30.28 "Hg10 mi
8:15 AM25 °FCold.3 mph54%30.27 "Hg10 mi
7:55 AM25 °FCold.No wind50%30.27 "Hg10 mi
7:35 AM21 °FCold.No wind54%30.26 "Hg10 mi
7:15 AM25 °FCold.No wind54%30.25 "Hg10 mi
6:55 AM25 °FCold.3 mph50%30.25 "Hg10 mi
6:35 AM27 °FChilly.No wind50%30.24 "Hg10 mi
6:15 AM25 °FCold.No wind54%30.23 "Hg10 mi
5:55 AM25 °FCold.5 mph50%30.22 "Hg10 mi
5:35 AM25 °FCold.6 mph54%30.22 "Hg10 mi
5:15 AM25 °FCold.6 mph50%30.21 "Hg10 mi
4:55 AM25 °FCold.No wind50%30.21 "Hg10 mi
4:35 AM27 °FChilly.No wind50%30.21 "Hg10 mi
4:15 AM28 °FChilly.No wind47%30.20 "Hg10 mi
3:55 AM27 °FChilly.No wind50%30.20 "Hg10 mi
3:35 AM30 °FChilly.No wind43%30.20 "Hg10 mi
2:55 AM28 °FChilly.3 mph47%30.20 "Hg10 mi
2:35 AM28 °FChilly.3 mph43%30.20 "Hg10 mi
2:15 AM28 °FChilly.5 mph47%30.20 "Hg10 mi
1:55 AM28 °FChilly.3 mph47%30.20 "Hg10 mi
Weather by CustomWeather, © 2015

See weather overviewHow to use our weather pages